Meteo orario Zagradovka

Oggi, 29 Luglio, Giovedi

Tempo Temperatura Precipitazioni Vento Pressione Umidità
00:00 +12°C° 0 mm 2 m/s 742 mm Hg 81%
01:00 +10°C° 0 mm 2 m/s 742 mm Hg 81%
02:00 +10°C° 0 mm 2 m/s 742 mm Hg 81%
03:00 +9°C° 0 mm 2 m/s 742 mm Hg 82%
04:00 +9°C° 0 mm 2 m/s 742 mm Hg 83%
05:00 +8°C° 0 mm 2 m/s 743 mm Hg 84%
06:00 +10°C° 0 mm 2 m/s 743 mm Hg 78%
07:00 +13°C° 0 mm 2 m/s 743 mm Hg 71%
08:00 +15°C° 0 mm 2 m/s 743 mm Hg 64%
09:00 +16°C° 0 mm 2 m/s 743 mm Hg 58%
10:00 +17°C° 0 mm 3 m/s 743 mm Hg 51%
11:00 +19°C° 0 mm 3 m/s 743 mm Hg 45%
12:00 +20°C° 0 mm 3 m/s 743 mm Hg 42%
13:00 +20°C° 0 mm 3 m/s 743 mm Hg 39%
14:00 +21°C° 0 mm 3 m/s 743 mm Hg 36%
15:00 +21°C° 0 mm 3 m/s 743 mm Hg 36%
16:00 +21°C° 0 mm 4 m/s 743 mm Hg 36%
17:00 +22°C° 0 mm 4 m/s 743 mm Hg 35%
18:00 +20°C° 0 mm 3 m/s 743 mm Hg 40%
19:00 +19°C° 0 mm 3 m/s 743 mm Hg 46%
20:00 +18°C° 0 mm 2 m/s 743 mm Hg 51%
21:00 +17°C° 0 mm 2 m/s 743 mm Hg 52%
22:00 +16°C° 0 mm 2 m/s 743 mm Hg 53%
23:00 +16°C° 0 mm 2 m/s 743 mm Hg 54%

Domani, 30 Luglio, Venerdi

Tempo Temperatura Precipitazioni Vento Pressione Umidità
00:00 +15°C° 0 mm 2 m/s 743 mm Hg 55%
01:00 +13°C° 0 mm 3 m/s 743 mm Hg 57%
02:00 +13°C° 0 mm 4 m/s 743 mm Hg 58%
03:00 +12°C° 0 mm 4 m/s 743 mm Hg 60%
04:00 +12°C° 0 mm 4 m/s 744 mm Hg 61%
05:00 +12°C° 0 mm 4 m/s 744 mm Hg 62%
06:00 +14°C° 0 mm 5 m/s 744 mm Hg 57%
07:00 +16°C° 0 mm 5 m/s 744 mm Hg 52%
08:00 +19°C° 0 mm 6 m/s 744 mm Hg 47%
09:00 +21°C° 0 mm 6 m/s 744 mm Hg 44%
10:00 +22°C° 0 mm 7 m/s 744 mm Hg 41%
11:00 +24°C° 0 mm 7 m/s 744 mm Hg 37%
12:00 +26°C° 0 mm 7 m/s 744 mm Hg 35%
13:00 +26°C° 0 mm 7 m/s 744 mm Hg 33%
14:00 +27°C° 0 mm 8 m/s 743 mm Hg 31%
15:00 +27°C° 0 mm 8 m/s 743 mm Hg 32%
16:00 +27°C° 0 mm 7 m/s 743 mm Hg 33%
17:00 +27°C° 0 mm 7 m/s 743 mm Hg 34%
18:00 +26°C° 0 mm 6 m/s 742 mm Hg 35%
19:00 +24°C° 0 mm 6 m/s 742 mm Hg 36%
20:00 +23°C° 0 mm 5 m/s 742 mm Hg 37%
21:00 +21°C° 0.1 mm 4 m/s 742 mm Hg 47%
22:00 +20°C° 0.1 mm 3 m/s 742 mm Hg 56%
23:00 +19°C° 0.1 mm 3 m/s 741 mm Hg 66%

Dopodomani, 31 Luglio, Sabato

Tempo Temperatura Precipitazioni Vento Pressione Umidità
00:00 +19°C° 0 mm 4 m/s 741 mm Hg 61%
01:00 +20°C° 0 mm 4 m/s 741 mm Hg 56%
02:00 +20°C° 0 mm 5 m/s 741 mm Hg 51%
03:00 +21°C° 0 mm 6 m/s 740 mm Hg 46%
04:00 +21°C° 0 mm 6 m/s 740 mm Hg 42%
05:00 +21°C° 0 mm 7 m/s 740 mm Hg 38%
06:00 +21°C° 0 mm 7 m/s 740 mm Hg 43%
07:00 +22°C° 0 mm 6 m/s 740 mm Hg 49%
08:00 +22°C° 0 mm 6 m/s 741 mm Hg 54%
09:00 +23°C° 0 mm 6 m/s 741 mm Hg 53%
10:00 +24°C° 0 mm 6 m/s 741 mm Hg 52%
11:00 +26°C° 0 mm 5 m/s 741 mm Hg 50%
12:00 +27°C° 0 mm 5 m/s 741 mm Hg 48%
13:00 +28°C° 0 mm 5 m/s 742 mm Hg 45%
14:00 +29°C° 0 mm 5 m/s 742 mm Hg 43%
15:00 +29°C° 0 mm 5 m/s 742 mm Hg 45%
16:00 +28°C° 0 mm 4 m/s 742 mm Hg 46%
17:00 +27°C° 0 mm 4 m/s 742 mm Hg 48%
18:00 +26°C° 0 mm 3 m/s 742 mm Hg 52%
19:00 +25°C° 0 mm 1 m/s 743 mm Hg 55%
20:00 +23°C° 0 mm 0 m/s 743 mm Hg 58%
21:00 +24°C° 0 mm 1 m/s 743 mm Hg 59%
22:00 +23°C° 0 mm 1 m/s 743 mm Hg 60%
23:00 +23°C° 0 mm 2 m/s 743 mm Hg 62%

1 Agosto, Domenica

Tempo Temperatura Precipitazioni Vento Pressione Umidità
00:00 +21°C° 0 mm 2 m/s 743 mm Hg 62%
01:00 +21°C° 0 mm 2 m/s 743 mm Hg 63%
02:00 +20°C° 0 mm 3 m/s 743 mm Hg 64%
03:00 +20°C° 0 mm 3 m/s 743 mm Hg 64%
04:00 +20°C° 0 mm 3 m/s 743 mm Hg 63%
05:00 +20°C° 0 mm 3 m/s 743 mm Hg 63%
06:00 +21°C° 0 mm 3 m/s 743 mm Hg 62%
07:00 +22°C° 0 mm 3 m/s 743 mm Hg 62%
08:00 +22°C° 0 mm 3 m/s 743 mm Hg 61%
09:00 +26°C° 0 mm 4 m/s 743 mm Hg 55%
10:00 +28°C° 0 mm 4 m/s 742 mm Hg 50%
11:00 +30°C° 0 mm 4 m/s 742 mm Hg 44%
12:00 +32°C° 0 mm 5 m/s 742 mm Hg 42%
13:00 +33°C° 0 mm 5 m/s 741 mm Hg 39%
14:00 +34°C° 0 mm 5 m/s 741 mm Hg 37%
15:00 +34°C° 0 mm 4 m/s 741 mm Hg 36%
16:00 +34°C° 0 mm 4 m/s 740 mm Hg 35%
17:00 +35°C° 0 mm 3 m/s 740 mm Hg 34%
18:00 +29°C° 3.4 mm 3 m/s 740 mm Hg 49%
19:00 +25°C° 3.4 mm 4 m/s 740 mm Hg 65%
20:00 +20°C° 3.4 mm 4 m/s 740 mm Hg 80%
21:00 +20°C° 0.7 mm 3 m/s 740 mm Hg 83%
22:00 +20°C° 0.7 mm 3 m/s 740 mm Hg 85%
23:00 +20°C° 0.7 mm 3 m/s 740 mm Hg 88%

2 Agosto, Lunedi

Tempo Temperatura Precipitazioni Vento Pressione Umidità
00:00 +19°C° 0 mm 3 m/s 740 mm Hg 89%
01:00 +19°C° 0 mm 3 m/s 740 mm Hg 91%
02:00 +19°C° 0 mm 3 m/s 740 mm Hg 92%
03:00 +19°C° 0 mm 3 m/s 740 mm Hg 93%
04:00 +18°C° 0 mm 3 m/s 740 mm Hg 93%
05:00 +18°C° 0 mm 4 m/s 741 mm Hg 94%
06:00 +19°C° 0 mm 4 m/s 741 mm Hg 88%
07:00 +20°C° 0 mm 4 m/s 741 mm Hg 83%
08:00 +21°C° 0 mm 5 m/s 741 mm Hg 77%
09:00 +22°C° 0 mm 5 m/s 742 mm Hg 67%
10:00 +25°C° 0 mm 5 m/s 742 mm Hg 58%
11:00 +26°C° 0 mm 6 m/s 742 mm Hg 49%
12:00 +27°C° 0 mm 6 m/s 742 mm Hg 46%
13:00 +27°C° 0 mm 6 m/s 742 mm Hg 43%
14:00 +28°C° 0 mm 6 m/s 742 mm Hg 41%
15:00 +28°C° 0 mm 6 m/s 742 mm Hg 41%
16:00 +28°C° 0 mm 5 m/s 742 mm Hg 41%
17:00 +28°C° 0 mm 5 m/s 742 mm Hg 41%
18:00 +27°C° 0 mm 4 m/s 742 mm Hg 45%
19:00 +26°C° 0 mm 4 m/s 742 mm Hg 48%
20:00 +24°C° 0 mm 3 m/s 743 mm Hg 52%
21:00 +22°C° 0 mm 3 m/s 743 mm Hg 55%
22:00 +21°C° 0 mm 3 m/s 743 mm Hg 57%
23:00 +20°C° 0 mm 3 m/s 743 mm Hg 60%

3 Agosto, Martedi

Tempo Temperatura Precipitazioni Vento Pressione Umidità
00:00 +19°C° 0 mm 3 m/s 743 mm Hg 60%
01:00 +19°C° 0 mm 3 m/s 743 mm Hg 60%
02:00 +19°C° 0 mm 3 m/s 743 mm Hg 60%
03:00 +19°C° 0 mm 3 m/s 743 mm Hg 62%
04:00 +18°C° 0 mm 3 m/s 744 mm Hg 64%
05:00 +18°C° 0 mm 3 m/s 744 mm Hg 66%
06:00 +19°C° 0 mm 3 m/s 744 mm Hg 63%
07:00 +20°C° 0 mm 4 m/s 744 mm Hg 60%
08:00 +22°C° 0 mm 4 m/s 745 mm Hg 57%
09:00 +23°C° 0 mm 4 m/s 745 mm Hg 52%
10:00 +26°C° 0 mm 4 m/s 745 mm Hg 46%
11:00 +27°C° 0 mm 4 m/s 745 mm Hg 41%
12:00 +28°C° 0 mm 4 m/s 745 mm Hg 40%
13:00 +29°C° 0 mm 4 m/s 745 mm Hg 39%
14:00 +29°C° 0 mm 5 m/s 745 mm Hg 38%
15:00 +29°C° 0 mm 4 m/s 745 mm Hg 39%
16:00 +29°C° 0 mm 4 m/s 744 mm Hg 40%
17:00 +28°C° 0 mm 3 m/s 744 mm Hg 41%
18:00 +27°C° 0 mm 3 m/s 744 mm Hg 46%
19:00 +26°C° 0 mm 2 m/s 744 mm Hg 51%
20:00 +24°C° 0 mm 2 m/s 744 mm Hg 56%
21:00 +23°C° 0 mm 2 m/s 745 mm Hg 57%
22:00 +23°C° 0 mm 1 m/s 745 mm Hg 57%
23:00 +22°C° 0 mm 1 m/s 745 mm Hg 58%
Mostrare altro

Abbiamo bisogno del tuo consenso

Meteoprog e i nostri fornitori di servizi possono memorizzare e accedere a dati personali come cookie, identificatori di dispositivi o altre tecnologie simili sul tuo dispositivo e possono elaborare tali dati per personalizzare i contenuti e gli annunci, nonché fornire funzionalità dei social media e analizzarne il traffico.

  • Archiviare e/o accedere alle informazioni sul tuo dispositivo

    Cookie, identificatori di dispositivi o altre informazioni possono essere memorizzati o resi accessibili sul tuo dispositivo per le finalità sopra indicate.

  • Annunci e contenuti personalizzati, misurazione di annunci e contenuti, approfondimenti sul pubblico e sviluppo di prodotti

    Gli annunci e i contenuti possono essere personalizzati in base a un profilo. È possibile aggiungere più dati per personalizzare meglio annunci e contenuti. È possibile misurare il rendimento degli annunci e dei contenuti. È possibile ricavare informazioni sul pubblico che ha visto gli annunci e i contenuti. Tali dati possono essere utilizzati per sviluppare o migliorare l'esperienza, i sistemi e il software dell'utente.

Cliccando su “Accetto”, acconsenti all'uso di cookie, identificatori di dispositivo, web beacon o altre tecnologie simili. Puoi modificare le impostazioni nel browser del tuo dispositivo.

Per determinati scopi, è possibile fare affidamento su interessi legali, piuttosto che sul consenso. Puoi approfondire questo argomento consultando la nostra Informativa sulla privacy e sui cookie.